Location: Ecklingerode
(51.5036°N, 10.3122°E)
Time: 07:49:24
(UTC+00:00)

Cosmos 1346 Rocket - Pass Details

Date: 29 October 2020
Orbit: 535 x 543 km, 81.2° (Epoch: 01 December)

Event Time Altitude Azimuth Distance (km) Brightness Sun altitude
Rises 17:27:35 0° 348° (NNW) 2,719 6.5 -14.6°
Reaches altitude 10° 17:29:46 10° 349° (N) 1,822 5.6 -15.0°
Maximum altitude 17:33:47 80° 76° (ENE) 559 2.7 -15.6°
Drops below altitude 10° 17:37:46 10° 165° (SSE) 1,808 5.3 -16.2°
Sets 17:39:55 0° 166° (SSE) 2,696 6.2 -16.5°
